Sarah Ann — WDF3387 — position and weather

sailwx.info

Track history (hours):
 
Tides and Currents Weather Stations Pressure Air Temp Water Temp Dewpoint Dewpoint Depression Visibility Wind Speed Wind Dir Waves Ship Positions

Sarah Ann

Owner: Donjon Marine Co., Inc., Hillside, NJ. More information available from US FCC via Universal Licensing System and Coast Guard Vessel Documentation Center.

Last reported at 2017-Oct-23 02:30 UTC. Time now 2017-Oct-23 02:46 UTC.
Position N 40°42' W 074°09'.

Length 2 m; draft 3 m.

Type: Tug. MMSI: 366902120.

Date/timePositionNaut miles runAvg speedWind from/ knotsBaromVisibWave heightAir tempDewpointWater temp
2017-Oct-23 02:30N 40°42' W 074°09'0 0.1
2017-Oct-23 02:00N 40°42' W 074°09'0 0.0
2017-Oct-23 01:30N 40°42' W 074°09'0 0.0
2017-Oct-23 01:01N 40°42' W 074°09'1 2.2
2017-Oct-23 00:30N 40°41' W 074°08'1 2.8
2017-Oct-23 00:00N 40°40' W 074°09'2 3.7
2017-Oct-22 23:30N 40°39' W 074°06'2 4.9
2017-Oct-22 23:00N 40°40' W 074°04'1 2.1
2017-Oct-22 22:30N 40°41' W 074°05'2 3.5
2017-Oct-22 22:00N 40°39' W 074°04'3 5.9
2017-Oct-22 21:28N 40°39' W 074°08'4 7.5
2017-Oct-22 21:00N 40°40' W 074°04'1 2.2
2017-Oct-22 20:31N 40°41' W 074°04'2 4.1
2017-Oct-22 20:00N 40°42' W 074°02'3 6.9
2017-Oct-22 19:30N 40°44' W 073°58'1 2.2
2017-Oct-22 19:00N 40°44' W 073°57'0 0.1
2017-Oct-22 18:31N 40°44' W 073°57'0 0.0
2017-Oct-22 18:01N 40°44' W 073°57'0 0.2
2017-Oct-22 17:30N 40°44' W 073°57'0 0.0
2017-Oct-22 17:01N 40°44' W 073°57'4 3.6
2017-Oct-22 16:00N 40°42' W 074°00'3 5.8
2017-Oct-22 15:30N 40°41' W 074°04'1 1.8
2017-Oct-22 15:01N 40°41' W 074°05'0 0.0
2017-Oct-22 14:30N 40°41' W 074°05'0 0.0
2017-Oct-22 14:00N 40°41' W 074°05'0 0.0
2017-Oct-22 13:30N 40°41' W 074°05'0 0.0
2017-Oct-22 13:00N 40°41' W 074°05'0 0.0
2017-Oct-22 12:31N 40°41' W 074°05'0 0.0
2017-Oct-22 12:00N 40°41' W 074°05'0 0.0
2017-Oct-22 11:31N 40°41' W 074°05'0 0.0
2017-Oct-22 11:00N 40°41' W 074°05'0 0.0
2017-Oct-22 10:31N 40°41' W 074°05'0 0.0
2017-Oct-22 10:00N 40°41' W 074°05'0 0.0
2017-Oct-22 09:31N 40°41' W 074°05'0 0.0
2017-Oct-22 09:01N 40°41' W 074°05'0 0.0
2017-Oct-22 08:30N 40°41' W 074°05'0 0.0
2017-Oct-22 08:01N 40°41' W 074°05'0 0.0
2017-Oct-22 07:30N 40°41' W 074°05'0 0.1
2017-Oct-22 07:00N 40°41' W 074°05'1 2.4
2017-Oct-22 06:30N 40°41' W 074°03'3 6.9
2017-Oct-22 06:00N 40°42' W 073°59'4 7.8
2017-Oct-22 05:31N 40°46' W 073°57'4 7.2
2017-Oct-22 04:57N 40°48' W 073°52'0 0.3
2017-Oct-22 04:30N 40°48' W 073°53'0 0.1
2017-Oct-22 04:00N 40°48' W 073°52'0 0.1
2017-Oct-22 03:30N 40°48' W 073°52'0 0.0
2017-Oct-22 02:56N 40°48' W 073°52'0 0.0
2017-Oct-22 02:30N 40°48' W 073°52'0 0.0
2017-Oct-22 02:00N 40°48' W 073°52'0 0.0
2017-Oct-22 01:30N 40°48' W 073°52'0 0.0
2017-Oct-22 01:00N 40°48' W 073°52'0 0.0
2017-Oct-22 00:28N 40°48' W 073°52'0 0.0
2017-Oct-22 00:00N 40°48' W 073°52'0 0.0
2017-Oct-21 23:30N 40°48' W 073°52'0 0.0
2017-Oct-21 23:00N 40°48' W 073°52'0 0.0
2017-Oct-21 22:22N 40°48' W 073°52'0 0.2
2017-Oct-21 22:00N 40°48' W 073°53'0 0.1
2017-Oct-21 21:29N 40°48' W 073°53'0 0.0
2017-Oct-21 21:01N 40°48' W 073°53'0 0.0
2017-Oct-21 20:25N 40°48' W 073°53'0 0.2
2017-Oct-21 20:00N 40°48' W 073°53'2 0.1
2017-Oct-21 02:37N 40°48' W 073°49'1 7.4
2017-Oct-21 02:30N 40°48' W 073°51'4 7.7
2017-Oct-21 02:00N 40°47' W 073°55'4 8.6
2017-Oct-21 01:31N 40°43' W 073°58'4 8.3
2017-Oct-21 01:00N 40°40' W 074°02'2 3.7
2017-Oct-21 00:30N 40°41' W 074°05'0 0.2
2017-Oct-21 00:01N 40°41' W 074°05'1 2.3
2017-Oct-20 23:30N 40°40' W 074°03'3 5.4
2017-Oct-20 23:00N 40°42' W 074°00'2 3.7
2017-Oct-20 22:30N 40°43' W 073°58'2 3.5
2017-Oct-20 22:00N 40°44' W 073°57'0 0.7
2017-Oct-20 21:30N 40°44' W 073°57'0 0.1
2017-Oct-20 21:00N 40°44' W 073°57'1 1.9
2017-Oct-20 20:30N 40°44' W 073°58'2 4.0
2017-Oct-20 20:01N 40°42' W 073°59'2 3.8
2017-Oct-20 19:30N 40°41' W 074°02'2 3.9
2017-Oct-20 19:01N 40°41' W 074°04'1 1.1
2017-Oct-20 18:31N 40°41' W 074°04'1 2.5
2017-Oct-20 18:01N 40°40' W 074°04'4 7.3
2017-Oct-20 17:30N 40°39' W 074°08'2 4.9
2017-Oct-20 17:00N 40°41' W 074°08'1 2.0
2017-Oct-20 16:30N 40°42' W 074°09'0 0.2
2017-Oct-20 15:59N 40°42' W 074°09'0 0.1
2017-Oct-20 15:25N 40°42' W 074°09'0 0.0
2017-Oct-20 15:00N 40°42' W 074°09'0 0.0
2017-Oct-20 14:22N 40°42' W 074°09'0 0.0
2017-Oct-20 13:30N 40°42' W 074°09'0 0.0
2017-Oct-20 12:59N 40°42' W 074°09'0 0.0
2017-Oct-20 12:30N 40°42' W 074°09'0 0.0
2017-Oct-20 11:59N 40°42' W 074°09'0 0.0
2017-Oct-20 11:30N 40°42' W 074°09'0 0.0
2017-Oct-20 11:00N 40°42' W 074°09'0 0.0
2017-Oct-20 10:30N 40°42' W 074°09'0 0.0
2017-Oct-20 09:57N 40°42' W 074°09'0 0.0
2017-Oct-20 09:30N 40°42' W 074°09'0 0.0
2017-Oct-20 09:00N 40°42' W 074°09'0 0.0
2017-Oct-20 08:30N 40°42' W 074°09'0 0.0
2017-Oct-20 08:00N 40°42' W 074°09'0 0.0
2017-Oct-20 07:30N 40°42' W 074°09'0 0.0
2017-Oct-20 07:00N 40°42' W 074°09'0 0.0
2017-Oct-20 06:30N 40°42' W 074°09'0 0.1
2017-Oct-20 06:00N 40°42' W 074°09'2 5.0
2017-Oct-20 05:31N 40°40' W 074°09'3 6.5
2017-Oct-20 04:59N 40°37' W 074°12'2 1.6
2017-Oct-20 03:50N 40°36' W 074°12'3 9.1
2017-Oct-20 03:30N 40°39' W 074°11'3 5.6
2017-Oct-20 03:00N 40°39' W 074°08'3 6.0
2017-Oct-20 02:31N 40°40' W 074°04'2 3.1
2017-Oct-20 02:01N 40°41' W 074°05'0 0.0
2017-Oct-20 01:31N 40°41' W 074°05'0 0.0
2017-Oct-20 01:00N 40°41' W 074°05'0 0.0
2017-Oct-20 00:30N 40°41' W 074°05'0 0.0
2017-Oct-20 00:00N 40°41' W 074°05'0 0.0
2017-Oct-19 23:30N 40°41' W 074°05'0 0.0
2017-Oct-19 23:01N 40°41' W 074°05'0 0.0
2017-Oct-19 22:30N 40°41' W 074°05'0 0.0
2017-Oct-19 22:01N 40°41' W 074°05'0 0.0
2017-Oct-19 21:30N 40°41' W 074°05'0 0.0
2017-Oct-19 21:01N 40°41' W 074°05'0 0.0
2017-Oct-19 20:30N 40°41' W 074°05'1 1.8
2017-Oct-19 20:01N 40°41' W 074°04'3 5.8
2017-Oct-19 19:30N 40°39' W 074°07'2 3.8
2017-Oct-19 19:00N 40°40' W 074°08'1 1.4
2017-Oct-19 18:30N 40°40' W 074°09'3 5.5
2017-Oct-19 18:01N 40°39' W 074°05'2 4.2
2017-Oct-19 17:31N 40°41' W 074°05'2 3.3
2017-Oct-19 17:00N 40°41' W 074°02'3 6.2
2017-Oct-19 16:30N 40°44' W 074°01'3 5.7
2017-Oct-19 16:00N 40°47' W 073°60'2 4.3
2017-Oct-19 15:30N 40°49' W 073°59'3 5.3
2017-Oct-19 14:58N 40°51' W 073°57'2 4.4
2017-Oct-19 14:30N 40°53' W 073°56'5 0.1
2017-Oct-18 02:56N 40°58' W 073°54'3 7.4
2017-Oct-18 02:29N 40°55' W 073°55'4 7.7
2017-Oct-18 02:01N 40°51' W 073°57'4 8.0
2017-Oct-18 01:31N 40°48' W 073°59'4 8.3
2017-Oct-18 01:01N 40°44' W 074°01'4 7.6
2017-Oct-18 00:30N 40°40' W 074°03'1 2.6
2017-Oct-18 00:00N 40°41' W 074°05'0 0.1
2017-Oct-17 23:30N 40°41' W 074°05'0 0.2
2017-Oct-17 23:01N 40°41' W 074°04'0 0.3
2017-Oct-17 22:30N 40°41' W 074°05'0 0.0
2017-Oct-17 22:01N 40°41' W 074°05'0 0.0
2017-Oct-17 21:30N 40°41' W 074°05'0 0.0
2017-Oct-17 21:00N 40°41' W 074°05'0 0.0
2017-Oct-17 20:30N 40°41' W 074°05'0 0.0
2017-Oct-17 20:00N 40°41' W 074°05'0 0.0
2017-Oct-17 19:30N 40°41' W 074°05'0 0.0
2017-Oct-17 19:00N 40°41' W 074°05'0 0.0
2017-Oct-17 18:30N 40°41' W 074°05'0 0.0
2017-Oct-17 18:00N 40°41' W 074°05'0 0.0
2017-Oct-17 17:30N 40°41' W 074°05'0 0.0
2017-Oct-17 17:01N 40°41' W 074°05'1 1.1
2017-Oct-17 16:31N 40°41' W 074°04'1 1.5
2017-Oct-17 16:01N 40°41' W 074°03'4 7.2
2017-Oct-17 15:30N 40°44' W 074°01'2 4.1
2017-Oct-17 15:00N 40°46' W 074°00'1 1.3
2017-Oct-17 14:30N 40°45' W 074°01'3 6.9
2017-Oct-17 14:01N 40°42' W 074°02'3 6.6
2017-Oct-17 13:31N 40°39' W 074°04'4 7.2
2017-Oct-17 13:00N 40°39' W 074°09'3 5.2
2017-Oct-17 12:31N 40°41' W 074°08'0 0.2
2017-Oct-17 12:00N 40°41' W 074°08'0 0.7
2017-Oct-17 11:30N 40°41' W 074°08'0 0.8
2017-Oct-17 11:00N 40°41' W 074°08'0 0.0
2017-Oct-17 10:30N 40°41' W 074°08'0 0.0
2017-Oct-17 10:00N 40°41' W 074°08'0 0.8
2017-Oct-17 09:30N 40°42' W 074°09'3 6.4
2017-Oct-17 09:00N 40°39' W 074°09'4 7.8
2017-Oct-17 08:31N 40°40' W 074°04'4 7.4
2017-Oct-17 08:01N 40°43' W 074°01'3 5.5
2017-Oct-17 07:31N 40°46' W 074°00'0 0.6
2017-Oct-17 07:01N 40°46' W 074°00'0 0.5
2017-Oct-17 06:31N 40°46' W 074°01'0 0.3
2017-Oct-17 06:00N 40°45' W 074°01'2 3.4
2017-Oct-17 05:30N 40°44' W 074°01'2 4.5
2017-Oct-17 05:01N 40°42' W 074°02'1 2.5
2017-Oct-17 04:30N 40°41' W 074°03'0 0.0
2017-Oct-17 04:01N 40°41' W 074°03'0 0.0
2017-Oct-17 03:30N 40°41' W 074°03'0 0.0
2017-Oct-17 03:01N 40°41' W 074°03'0 0.0
2017-Oct-17 02:31N 40°41' W 074°03'0 0.0
2017-Oct-17 02:00N 40°41' W 074°03'0 0.0
2017-Oct-17 01:31N 40°41' W 074°03'0 0.0
2017-Oct-17 01:01N 40°41' W 074°03'0 0.0
2017-Oct-17 00:30N 40°41' W 074°03'1 3.0
2017-Oct-17 00:01N 40°39' W 074°04'4 7.4
2017-Oct-16 23:31N 40°39' W 074°09'3 5.5
2017-Oct-16 23:00N 40°41' W 074°08'1 1.5
2017-Oct-16 22:30N 40°42' W 074°09'3 5.7
2017-Oct-16 22:00N 40°39' W 074°09'4 7.3
2017-Oct-16 21:30N 40°40' W 074°04'4 7.5
2017-Oct-16 21:01N 40°43' W 074°02'3 6.5
2017-Oct-16 20:30N 40°46' W 074°00'0 0.0
2017-Oct-16 20:01N 40°46' W 074°00'0 0.3
2017-Oct-16 19:31N 40°46' W 074°00'0 0.4
2017-Oct-16 19:01N 40°46' W 074°00'1 1.4
2017-Oct-16 18:30N 40°45' W 074°01'0 0.3
2017-Oct-16 18:00N 40°45' W 074°01'0 0.2
2017-Oct-16 17:30N 40°45' W 074°01'0 0.1
2017-Oct-16 17:00N 40°45' W 074°01'1 2.0
2017-Oct-16 16:30N 40°44' W 074°01'1 2.7
2017-Oct-16 16:00N 40°43' W 074°02'2 3.1
2017-Oct-16 15:30N 40°41' W 074°02'2 3.2
2017-Oct-16 15:00N 40°40' W 074°03'2 4.6
2017-Oct-16 14:30N 40°39' W 074°06'3 3.1
2017-Oct-16 13:30N 40°41' W 074°08'0 0.1
2017-Oct-16 13:00N 40°41' W 074°08'0 0.0
2017-Oct-16 12:30N 40°41' W 074°08'0 0.0
2017-Oct-16 12:00N 40°41' W 074°08'0 0.0
2017-Oct-16 11:29N 40°41' W 074°08'0 0.0
2017-Oct-16 11:00N 40°41' W 074°08'0 0.0
2017-Oct-16 10:30N 40°41' W 074°08'0 0.0
2017-Oct-16 10:00N 40°41' W 074°08'0 0.0
2017-Oct-16 09:30N 40°41' W 074°08'0 0.0
2017-Oct-16 09:01N 40°41' W 074°08'0 0.0
2017-Oct-16 08:31N 40°41' W 074°08'0 0.0
2017-Oct-16 08:01N 40°41' W 074°08'0 0.0
2017-Oct-16 07:31N 40°41' W 074°08'0 0.0
2017-Oct-16 07:01N 40°41' W 074°08'0 0.0
2017-Oct-16 06:31N 40°41' W 074°08'0 0.0
2017-Oct-16 06:00N 40°41' W 074°08'0 0.0
2017-Oct-16 05:30N 40°41' W 074°08'0 0.0
2017-Oct-16 05:00N 40°41' W 074°08'0 0.0
2017-Oct-16 04:30N 40°41' W 074°08'0 0.0
2017-Oct-16 04:00N 40°41' W 074°08'0 0.0
2017-Oct-16 03:30N 40°41' W 074°08'0 0.0
2017-Oct-16 03:00N 40°41' W 074°08'0 0.0
2017-Oct-16 02:30N 40°41' W 074°08'0 0.0
2017-Oct-16 02:01N 40°41' W 074°08'0 0.0
2017-Oct-16 01:30N 40°41' W 074°08'0 0.0
2017-Oct-16 01:00N 40°41' W 074°08'0 0.1
2017-Oct-16 00:30N 40°41' W 074°08'1 1.7
2017-Oct-16 00:00N 40°42' W 074°09'0 0.0
2017-Oct-15 23:31N 40°42' W 074°09'0 0.0
2017-Oct-15 23:01N 40°42' W 074°09'0 0.0
2017-Oct-15 22:31N 40°42' W 074°09'0 0.0
2017-Oct-15 22:00N 40°42' W 074°09'1 1.9
2017-Oct-15 21:30N 40°41' W 074°08'0 0.0
2017-Oct-15 21:00N 40°41' W 074°08'1 1.5
2017-Oct-15 20:30N 40°42' W 074°09'1 1.6
2017-Oct-15 20:00N 40°41' W 074°08'0 0.1
2017-Oct-15 19:30N 40°41' W 074°08'0 0.2
2017-Oct-15 19:01N 40°41' W 074°08'0 0.2
2017-Oct-15 18:31N 40°42' W 074°08'1 0.9
2017-Oct-15 17:42N 40°42' W 074°09'0 0.0
2017-Oct-15 17:13N 40°42' W 074°09'0 0.0
2017-Oct-15 16:59N 40°42' W 074°09'0 0.0
2017-Oct-15 16:30N 40°42' W 074°09'0 0.0
2017-Oct-15 16:00N 40°42' W 074°09'0 0.0
2017-Oct-15 15:30N 40°42' W 074°09'0 0.0
2017-Oct-15 15:00N 40°42' W 074°09'0 0.0
2017-Oct-15 14:00N 40°42' W 074°09'0 0.0
2017-Oct-15 13:30N 40°42' W 074°09'0 0.0
2017-Oct-15 13:00N 40°42' W 074°09'0 0.0
2017-Oct-15 12:30N 40°42' W 074°09'0 0.0
2017-Oct-15 12:00N 40°42' W 074°09'0 0.0
2017-Oct-15 11:30N 40°42' W 074°09'0 0.0
2017-Oct-15 11:00N 40°42' W 074°09'0 0.0
2017-Oct-15 10:30N 40°42' W 074°09'0 0.0
2017-Oct-15 10:00N 40°42' W 074°09'0 0.0
2017-Oct-15 09:30N 40°42' W 074°09'0 0.0
2017-Oct-15 09:01N 40°42' W 074°09'0 0.0
2017-Oct-15 08:30N 40°42' W 074°09'0 0.0
2017-Oct-15 08:00N 40°42' W 074°09'0 0.0
2017-Oct-15 07:30N 40°42' W 074°09'0 0.0
2017-Oct-15 07:00N 40°42' W 074°09'0 0.0
2017-Oct-15 06:30N 40°42' W 074°09'0 0.0
2017-Oct-15 06:00N 40°42' W 074°09'0 0.0
2017-Oct-15 05:30N 40°42' W 074°09'3 5.7
2017-Oct-15 05:00N 40°39' W 074°09'4 7.2
2017-Oct-15 04:30N 40°39' W 074°04'2 3.9
2017-Oct-15 04:01N 40°37' W 074°03'2 3.9
2017-Oct-15 03:31N 40°39' W 074°03'2 3.2
2017-Oct-15 03:01N 40°41' W 074°04'1 1.9
2017-Oct-15 02:30N 40°41' W 074°05'0 0.0
2017-Oct-15 02:00N 40°41' W 074°05'0 0.0
2017-Oct-15 01:30N 40°41' W 074°05'0 0.0
2017-Oct-15 01:00N 40°41' W 074°05'0 0.0
2017-Oct-15 00:30N 40°41' W 074°05'0 0.0
2017-Oct-15 00:01N 40°41' W 074°05'0 0.3
2017-Oct-14 23:30N 40°41' W 074°04'2 3.9
2017-Oct-14 23:01N 40°41' W 074°02'3 5.2
2017-Oct-14 22:30N 40°42' W 073°59'2 4.7
2017-Oct-14 22:00N 40°44' W 073°57'1 1.1
2017-Oct-14 21:30N 40°44' W 073°57'0 0.0
2017-Oct-14 21:00N 40°44' W 073°57'1 2.3
2017-Oct-14 20:30N 40°44' W 073°58'4 7.8
2017-Oct-14 20:00N 40°41' W 074°02'2 3.6
2017-Oct-14 19:30N 40°41' W 074°04'0 0.4
2017-Oct-14 19:00N 40°41' W 074°05'0 0.0
2017-Oct-14 18:30N 40°41' W 074°05'0 0.0
2017-Oct-14 18:00N 40°41' W 074°05'0 0.0
2017-Oct-14 17:30N 40°41' W 074°05'0 0.0
2017-Oct-14 17:00N 40°41' W 074°05'0 0.0
2017-Oct-14 16:30N 40°41' W 074°05'0 0.0
2017-Oct-14 16:00N 40°41' W 074°05'0 0.0
2017-Oct-14 15:30N 40°41' W 074°05'0 0.1
2017-Oct-14 15:00N 40°41' W 074°05'2 3.4
2017-Oct-14 14:30N 40°41' W 074°02'4 7.6
2017-Oct-14 14:01N 40°43' W 073°58'5 8.9
2017-Oct-14 13:30N 40°47' W 073°55'4 7.5
2017-Oct-14 12:59N 40°48' W 073°51'1 0.2
2017-Oct-14 08:50N 40°48' W 073°49'4 7.9
2017-Oct-14 08:23N 40°48' W 073°54'4 9.5
2017-Oct-14 08:00N 40°46' W 073°57'4 8.5
2017-Oct-14 07:30N 40°42' W 074°00'3 6.3
2017-Oct-14 07:01N 40°41' W 074°04'0 0.3
2017-Oct-14 06:31N 40°41' W 074°04'0 0.0
2017-Oct-14 05:59N 40°41' W 074°04'0 0.0
2017-Oct-14 05:30N 40°41' W 074°04'0 0.0
2017-Oct-14 05:00N 40°41' W 074°04'0 0.0
2017-Oct-14 04:30N 40°41' W 074°04'0 0.0
2017-Oct-14 04:00N 40°41' W 074°04'0 0.4
2017-Oct-14 03:30N 40°41' W 074°05'1 1.3
2017-Oct-14 03:00N 40°41' W 074°04'3 6.0
2017-Oct-14 02:31N 40°42' W 074°00'4 7.3
2017-Oct-14 02:01N 40°44' W 073°57'0 0.2
2017-Oct-14 01:30N 40°44' W 073°57'2 3.2
2017-Oct-14 01:01N 40°43' W 073°58'2 3.2
2017-Oct-14 00:30N 40°42' W 073°60'2 3.9
2017-Oct-14 00:00N 40°41' W 074°02'2 4.3
2017-Oct-13 23:30N 40°41' W 074°04'0 0.3
2017-Oct-13 23:00N 40°41' W 074°05'1 2.4
2017-Oct-13 22:30N 40°41' W 074°03'3 5.1
2017-Oct-13 22:01N 40°42' W 074°00'3 5.5
2017-Oct-13 21:30N 40°44' W 073°58'1 2.1
2017-Oct-13 21:00N 40°44' W 073°57'1 2.9
2017-Oct-13 20:31N 40°43' W 073°55'0 0.2
2017-Oct-13 20:00N 40°43' W 073°56'2 3.1
2017-Oct-13 19:30N 40°44' W 073°57'3 6.2
2017-Oct-13 19:00N 40°42' W 073°60'3 6.9
2017-Oct-13 18:30N 40°41' W 074°04'1 1.3
2017-Oct-13 18:00N 40°41' W 074°05'0 0.0
2017-Oct-13 17:30N 40°41' W 074°05'0 0.0
2017-Oct-13 17:00N 40°41' W 074°05'0 0.0
2017-Oct-13 16:30N 40°41' W 074°05'0 0.0
2017-Oct-13 16:00N 40°41' W 074°05'1 1.9
2017-Oct-13 15:30N 40°41' W 074°04'0 0.9
2017-Oct-13 15:00N 40°41' W 074°03'1 1.4
2017-Oct-13 14:30N 40°41' W 074°04'3 5.5
2017-Oct-13 14:00N 40°41' W 074°01'4 7.1
2017-Oct-13 13:30N 40°45' W 073°58'4 8.6
2017-Oct-13 13:01N 40°48' W 073°54'3 6.7
2017-Oct-13 12:30N 40°48' W 073°50'2 4.4
2017-Oct-13 12:00N 40°49' W 073°47'1 0.3
2017-Oct-13 08:13N 40°48' W 073°47'1 6.5
2017-Oct-13 07:59N 40°48' W 073°49'4 7.4
2017-Oct-13 07:30N 40°48' W 073°54'4 8.4
2017-Oct-13 07:00N 40°45' W 073°58'4 7.8
2017-Oct-13 06:30N 40°42' W 074°01'3 5.5
2017-Oct-13 06:00N 40°41' W 074°04'0 0.0
2017-Oct-13 05:30N 40°41' W 074°04'0 0.0
2017-Oct-13 05:00N 40°41' W 074°04'0 0.0
2017-Oct-13 04:30N 40°41' W 074°04'0 0.0
2017-Oct-13 04:00N 40°41' W 074°04'0 0.0
2017-Oct-13 03:31N 40°41' W 074°04'0 0.0
2017-Oct-13 03:00N 40°41' W 074°04'  
Track history (hours):
 
Tides and Currents Weather Stations Pressure Air Temp Water Temp Dewpoint Dewpoint Depression Visibility Wind Speed Wind Dir Waves Ship Positions

Sarah Ann

Owner: Donjon Marine Co., Inc., Hillside, NJ. More information available from US FCC via Universal Licensing System and Coast Guard Vessel Documentation Center.

Last reported at 2017-Oct-23 02:30 UTC. Time now 2017-Oct-23 02:46 UTC.
Position N 40°42' W 074°09'.

Length 2 m; draft 3 m.

Type: Tug. MMSI: 366902120.

Date/timePositionNaut miles runAvg speedWind from/ knotsBaromVisibWave heightAir tempDewpointWater temp
2017-Oct-23 02:30N 40°42' W 074°09'0 0.1
2017-Oct-23 02:00N 40°42' W 074°09'0 0.0
2017-Oct-23 01:30N 40°42' W 074°09'0 0.0
2017-Oct-23 01:01N 40°42' W 074°09'1 2.2
2017-Oct-23 00:30N 40°41' W 074°08'1 2.8
2017-Oct-23 00:00N 40°40' W 074°09'2 3.7
2017-Oct-22 23:30N 40°39' W 074°06'2 4.9
2017-Oct-22 23:00N 40°40' W 074°04'1 2.1
2017-Oct-22 22:30N 40°41' W 074°05'2 3.5
2017-Oct-22 22:00N 40°39' W 074°04'3 5.9
2017-Oct-22 21:28N 40°39' W 074°08'4 7.5
2017-Oct-22 21:00N 40°40' W 074°04'1 2.2
2017-Oct-22 20:31N 40°41' W 074°04'2 4.1
2017-Oct-22 20:00N 40°42' W 074°02'3 6.9
2017-Oct-22 19:30N 40°44' W 073°58'1 2.2
2017-Oct-22 19:00N 40°44' W 073°57'0 0.1
2017-Oct-22 18:31N 40°44' W 073°57'0 0.0
2017-Oct-22 18:01N 40°44' W 073°57'0 0.2
2017-Oct-22 17:30N 40°44' W 073°57'0 0.0
2017-Oct-22 17:01N 40°44' W 073°57'4 3.6
2017-Oct-22 16:00N 40°42' W 074°00'3 5.8
2017-Oct-22 15:30N 40°41' W 074°04'1 1.8
2017-Oct-22 15:01N 40°41' W 074°05'0 0.0
2017-Oct-22 14:30N 40°41' W 074°05'0 0.0
2017-Oct-22 14:00N 40°41' W 074°05'0 0.0
2017-Oct-22 13:30N 40°41' W 074°05'0 0.0
2017-Oct-22 13:00N 40°41' W 074°05'0 0.0
2017-Oct-22 12:31N 40°41' W 074°05'0 0.0
2017-Oct-22 12:00N 40°41' W 074°05'0 0.0
2017-Oct-22 11:31N 40°41' W 074°05'0 0.0
2017-Oct-22 11:00N 40°41' W 074°05'0 0.0
2017-Oct-22 10:31N 40°41' W 074°05'0 0.0
2017-Oct-22 10:00N 40°41' W 074°05'0 0.0
2017-Oct-22 09:31N 40°41' W 074°05'0 0.0
2017-Oct-22 09:01N 40°41' W 074°05'0 0.0
2017-Oct-22 08:30N 40°41' W 074°05'0 0.0
2017-Oct-22 08:01N 40°41' W 074°05'0 0.0
2017-Oct-22 07:30N 40°41' W 074°05'0 0.1
2017-Oct-22 07:00N 40°41' W 074°05'1 2.4
2017-Oct-22 06:30N 40°41' W 074°03'3 6.9
2017-Oct-22 06:00N 40°42' W 073°59'4 7.8
2017-Oct-22 05:31N 40°46' W 073°57'4 7.2
2017-Oct-22 04:57N 40°48' W 073°52'0 0.3
2017-Oct-22 04:30N 40°48' W 073°53'0 0.1
2017-Oct-22 04:00N 40°48' W 073°52'0 0.1
2017-Oct-22 03:30N 40°48' W 073°52'0 0.0
2017-Oct-22 02:56N 40°48' W 073°52'0 0.0
2017-Oct-22 02:30N 40°48' W 073°52'0 0.0
2017-Oct-22 02:00N 40°48' W 073°52'0 0.0
2017-Oct-22 01:30N 40°48' W 073°52'0 0.0
2017-Oct-22 01:00N 40°48' W 073°52'0 0.0
2017-Oct-22 00:28N 40°48' W 073°52'0 0.0
2017-Oct-22 00:00N 40°48' W 073°52'0 0.0
2017-Oct-21 23:30N 40°48' W 073°52'0 0.0
2017-Oct-21 23:00N 40°48' W 073°52'0 0.0
2017-Oct-21 22:22N 40°48' W 073°52'0 0.2
2017-Oct-21 22:00N 40°48' W 073°53'0 0.1
2017-Oct-21 21:29N 40°48' W 073°53'0 0.0
2017-Oct-21 21:01N 40°48' W 073°53'0 0.0
2017-Oct-21 20:25N 40°48' W 073°53'0 0.2
2017-Oct-21 20:00N 40°48' W 073°53'2 0.1
2017-Oct-21 02:37N 40°48' W 073°49'1 7.4
2017-Oct-21 02:30N 40°48' W 073°51'4 7.7
2017-Oct-21 02:00N 40°47' W 073°55'4 8.6
2017-Oct-21 01:31N 40°43' W 073°58'4 8.3
2017-Oct-21 01:00N 40°40' W 074°02'2 3.7
2017-Oct-21 00:30N 40°41' W 074°05'0 0.2
2017-Oct-21 00:01N 40°41' W 074°05'1 2.3
2017-Oct-20 23:30N 40°40' W 074°03'3 5.4
2017-Oct-20 23:00N 40°42' W 074°00'2 3.7
2017-Oct-20 22:30N 40°43' W 073°58'2 3.5
2017-Oct-20 22:00N 40°44' W 073°57'0 0.7
2017-Oct-20 21:30N 40°44' W 073°57'0 0.1
2017-Oct-20 21:00N 40°44' W 073°57'1 1.9
2017-Oct-20 20:30N 40°44' W 073°58'2 4.0
2017-Oct-20 20:01N 40°42' W 073°59'2 3.8
2017-Oct-20 19:30N 40°41' W 074°02'2 3.9
2017-Oct-20 19:01N 40°41' W 074°04'1 1.1
2017-Oct-20 18:31N 40°41' W 074°04'1 2.5
2017-Oct-20 18:01N 40°40' W 074°04'4 7.3
2017-Oct-20 17:30N 40°39' W 074°08'2 4.9
2017-Oct-20 17:00N 40°41' W 074°08'1 2.0
2017-Oct-20 16:30N 40°42' W 074°09'0 0.2
2017-Oct-20 15:59N 40°42' W 074°09'0 0.1
2017-Oct-20 15:25N 40°42' W 074°09'0 0.0
2017-Oct-20 15:00N 40°42' W 074°09'0 0.0
2017-Oct-20 14:22N 40°42' W 074°09'0 0.0
2017-Oct-20 13:30N 40°42' W 074°09'0 0.0
2017-Oct-20 12:59N 40°42' W 074°09'0 0.0
2017-Oct-20 12:30N 40°42' W 074°09'0 0.0
2017-Oct-20 11:59N 40°42' W 074°09'0 0.0
2017-Oct-20 11:30N 40°42' W 074°09'0 0.0
2017-Oct-20 11:00N 40°42' W 074°09'0 0.0
2017-Oct-20 10:30N 40°42' W 074°09'0 0.0
2017-Oct-20 09:57N 40°42' W 074°09'0 0.0
2017-Oct-20 09:30N 40°42' W 074°09'0 0.0
2017-Oct-20 09:00N 40°42' W 074°09'0 0.0
2017-Oct-20 08:30N 40°42' W 074°09'0 0.0
2017-Oct-20 08:00N 40°42' W 074°09'0 0.0
2017-Oct-20 07:30N 40°42' W 074°09'0 0.0
2017-Oct-20 07:00N 40°42' W 074°09'0 0.0
2017-Oct-20 06:30N 40°42' W 074°09'0 0.1
2017-Oct-20 06:00N 40°42' W 074°09'2 5.0
2017-Oct-20 05:31N 40°40' W 074°09'3 6.5
2017-Oct-20 04:59N 40°37' W 074°12'2 1.6
2017-Oct-20 03:50N 40°36' W 074°12'3 9.1
2017-Oct-20 03:30N 40°39' W 074°11'3 5.6
2017-Oct-20 03:00N 40°39' W 074°08'3 6.0
2017-Oct-20 02:31N 40°40' W 074°04'2 3.1
2017-Oct-20 02:01N 40°41' W 074°05'0 0.0
2017-Oct-20 01:31N 40°41' W 074°05'0 0.0
2017-Oct-20 01:00N 40°41' W 074°05'0 0.0
2017-Oct-20 00:30N 40°41' W 074°05'0 0.0
2017-Oct-20 00:00N 40°41' W 074°05'0 0.0
2017-Oct-19 23:30N 40°41' W 074°05'0 0.0
2017-Oct-19 23:01N 40°41' W 074°05'0 0.0
2017-Oct-19 22:30N 40°41' W 074°05'0 0.0
2017-Oct-19 22:01N 40°41' W 074°05'0 0.0
2017-Oct-19 21:30N 40°41' W 074°05'0 0.0
2017-Oct-19 21:01N 40°41' W 074°05'0 0.0
2017-Oct-19 20:30N 40°41' W 074°05'1 1.8
2017-Oct-19 20:01N 40°41' W 074°04'3 5.8
2017-Oct-19 19:30N 40°39' W 074°07'2 3.8
2017-Oct-19 19:00N 40°40' W 074°08'1 1.4
2017-Oct-19 18:30N 40°40' W 074°09'3 5.5
2017-Oct-19 18:01N 40°39' W 074°05'2 4.2
2017-Oct-19 17:31N 40°41' W 074°05'2 3.3
2017-Oct-19 17:00N 40°41' W 074°02'3 6.2
2017-Oct-19 16:30N 40°44' W 074°01'3 5.7
2017-Oct-19 16:00N 40°47' W 073°60'2 4.3
2017-Oct-19 15:30N 40°49' W 073°59'3 5.3
2017-Oct-19 14:58N 40°51' W 073°57'2 4.4
2017-Oct-19 14:30N 40°53' W 073°56'5 0.1
2017-Oct-18 02:56N 40°58' W 073°54'3 7.4
2017-Oct-18 02:29N 40°55' W 073°55'4 7.7
2017-Oct-18 02:01N 40°51' W 073°57'4 8.0
2017-Oct-18 01:31N 40°48' W 073°59'4 8.3
2017-Oct-18 01:01N 40°44' W 074°01'4 7.6
2017-Oct-18 00:30N 40°40' W 074°03'1 2.6
2017-Oct-18 00:00N 40°41' W 074°05'0 0.1
2017-Oct-17 23:30N 40°41' W 074°05'0 0.2
2017-Oct-17 23:01N 40°41' W 074°04'0 0.3
2017-Oct-17 22:30N 40°41' W 074°05'0 0.0
2017-Oct-17 22:01N 40°41' W 074°05'0 0.0
2017-Oct-17 21:30N 40°41' W 074°05'0 0.0
2017-Oct-17 21:00N 40°41' W 074°05'0 0.0
2017-Oct-17 20:30N 40°41' W 074°05'0 0.0
2017-Oct-17 20:00N 40°41' W 074°05'0 0.0
2017-Oct-17 19:30N 40°41' W 074°05'0 0.0
2017-Oct-17 19:00N 40°41' W 074°05'0 0.0
2017-Oct-17 18:30N 40°41' W 074°05'0 0.0
2017-Oct-17 18:00N 40°41' W 074°05'0 0.0
2017-Oct-17 17:30N 40°41' W 074°05'0 0.0
2017-Oct-17 17:01N 40°41' W 074°05'1 1.1
2017-Oct-17 16:31N 40°41' W 074°04'1 1.5
2017-Oct-17 16:01N 40°41' W 074°03'4 7.2
2017-Oct-17 15:30N 40°44' W 074°01'2 4.1
2017-Oct-17 15:00N 40°46' W 074°00'1 1.3
2017-Oct-17 14:30N 40°45' W 074°01'3 6.9
2017-Oct-17 14:01N 40°42' W 074°02'3 6.6
2017-Oct-17 13:31N 40°39' W 074°04'4 7.2
2017-Oct-17 13:00N 40°39' W 074°09'3 5.2
2017-Oct-17 12:31N 40°41' W 074°08'0 0.2
2017-Oct-17 12:00N 40°41' W 074°08'0 0.7
2017-Oct-17 11:30N 40°41' W 074°08'0 0.8
2017-Oct-17 11:00N 40°41' W 074°08'0 0.0
2017-Oct-17 10:30N 40°41' W 074°08'0 0.0
2017-Oct-17 10:00N 40°41' W 074°08'0 0.8
2017-Oct-17 09:30N 40°42' W 074°09'3 6.4
2017-Oct-17 09:00N 40°39' W 074°09'4 7.8
2017-Oct-17 08:31N 40°40' W 074°04'4 7.4
2017-Oct-17 08:01N 40°43' W 074°01'3 5.5
2017-Oct-17 07:31N 40°46' W 074°00'0 0.6
2017-Oct-17 07:01N 40°46' W 074°00'0 0.5
2017-Oct-17 06:31N 40°46' W 074°01'0 0.3
2017-Oct-17 06:00N 40°45' W 074°01'2 3.4
2017-Oct-17 05:30N 40°44' W 074°01'2 4.5
2017-Oct-17 05:01N 40°42' W 074°02'1 2.5
2017-Oct-17 04:30N 40°41' W 074°03'0 0.0
2017-Oct-17 04:01N 40°41' W 074°03'0 0.0
2017-Oct-17 03:30N 40°41' W 074°03'0 0.0
2017-Oct-17 03:01N 40°41' W 074°03'0 0.0
2017-Oct-17 02:31N 40°41' W 074°03'0 0.0
2017-Oct-17 02:00N 40°41' W 074°03'0 0.0
2017-Oct-17 01:31N 40°41' W 074°03'0 0.0
2017-Oct-17 01:01N 40°41' W 074°03'0 0.0
2017-Oct-17 00:30N 40°41' W 074°03'1 3.0
2017-Oct-17 00:01N 40°39' W 074°04'4 7.4
2017-Oct-16 23:31N 40°39' W 074°09'3 5.5
2017-Oct-16 23:00N 40°41' W 074°08'1 1.5
2017-Oct-16 22:30N 40°42' W 074°09'3 5.7
2017-Oct-16 22:00N 40°39' W 074°09'4 7.3
2017-Oct-16 21:30N 40°40' W 074°04'4 7.5
2017-Oct-16 21:01N 40°43' W 074°02'3 6.5
2017-Oct-16 20:30N 40°46' W 074°00'0 0.0
2017-Oct-16 20:01N 40°46' W 074°00'0 0.3
2017-Oct-16 19:31N 40°46' W 074°00'0 0.4
2017-Oct-16 19:01N 40°46' W 074°00'1 1.4
2017-Oct-16 18:30N 40°45' W 074°01'0 0.3
2017-Oct-16 18:00N 40°45' W 074°01'0 0.2
2017-Oct-16 17:30N 40°45' W 074°01'0 0.1
2017-Oct-16 17:00N 40°45' W 074°01'1 2.0
2017-Oct-16 16:30N 40°44' W 074°01'1 2.7
2017-Oct-16 16:00N 40°43' W 074°02'2 3.1
2017-Oct-16 15:30N 40°41' W 074°02'2 3.2
2017-Oct-16 15:00N 40°40' W 074°03'2 4.6
2017-Oct-16 14:30N 40°39' W 074°06'3 3.1
2017-Oct-16 13:30N 40°41' W 074°08'0 0.1
2017-Oct-16 13:00N 40°41' W 074°08'0 0.0
2017-Oct-16 12:30N 40°41' W 074°08'0 0.0
2017-Oct-16 12:00N 40°41' W 074°08'0 0.0
2017-Oct-16 11:29N 40°41' W 074°08'0 0.0
2017-Oct-16 11:00N 40°41' W 074°08'0 0.0
2017-Oct-16 10:30N 40°41' W 074°08'0 0.0
2017-Oct-16 10:00N 40°41' W 074°08'0 0.0
2017-Oct-16 09:30N 40°41' W 074°08'0 0.0
2017-Oct-16 09:01N 40°41' W 074°08'0 0.0
2017-Oct-16 08:31N 40°41' W 074°08'0 0.0
2017-Oct-16 08:01N 40°41' W 074°08'0 0.0
2017-Oct-16 07:31N 40°41' W 074°08'0 0.0
2017-Oct-16 07:01N 40°41' W 074°08'0 0.0
2017-Oct-16 06:31N 40°41' W 074°08'0 0.0
2017-Oct-16 06:00N 40°41' W 074°08'0 0.0
2017-Oct-16 05:30N 40°41' W 074°08'0 0.0
2017-Oct-16 05:00N 40°41' W 074°08'0 0.0
2017-Oct-16 04:30N 40°41' W 074°08'0 0.0
2017-Oct-16 04:00N 40°41' W 074°08'0 0.0
2017-Oct-16 03:30N 40°41' W 074°08'0 0.0
2017-Oct-16 03:00N 40°41' W 074°08'0 0.0
2017-Oct-16 02:30N 40°41' W 074°08'0 0.0
2017-Oct-16 02:01N 40°41' W 074°08'0 0.0
2017-Oct-16 01:30N 40°41' W 074°08'0 0.0
2017-Oct-16 01:00N 40°41' W 074°08'0 0.1
2017-Oct-16 00:30N 40°41' W 074°08'1 1.7
2017-Oct-16 00:00N 40°42' W 074°09'0 0.0
2017-Oct-15 23:31N 40°42' W 074°09'0 0.0
2017-Oct-15 23:01N 40°42' W 074°09'0 0.0
2017-Oct-15 22:31N 40°42' W 074°09'0 0.0
2017-Oct-15 22:00N 40°42' W 074°09'1 1.9
2017-Oct-15 21:30N 40°41' W 074°08'0 0.0
2017-Oct-15 21:00N 40°41' W 074°08'1 1.5
2017-Oct-15 20:30N 40°42' W 074°09'1 1.6
2017-Oct-15 20:00N 40°41' W 074°08'0 0.1
2017-Oct-15 19:30N 40°41' W 074°08'0 0.2
2017-Oct-15 19:01N 40°41' W 074°08'0 0.2
2017-Oct-15 18:31N 40°42' W 074°08'1 0.9
2017-Oct-15 17:42N 40°42' W 074°09'0 0.0
2017-Oct-15 17:13N 40°42' W 074°09'0 0.0
2017-Oct-15 16:59N 40°42' W 074°09'0 0.0
2017-Oct-15 16:30N 40°42' W 074°09'0 0.0
2017-Oct-15 16:00N 40°42' W 074°09'0 0.0
2017-Oct-15 15:30N 40°42' W 074°09'0 0.0
2017-Oct-15 15:00N 40°42' W 074°09'0 0.0
2017-Oct-15 14:00N 40°42' W 074°09'0 0.0
2017-Oct-15 13:30N 40°42' W 074°09'0 0.0
2017-Oct-15 13:00N 40°42' W 074°09'0 0.0
2017-Oct-15 12:30N 40°42' W 074°09'0 0.0
2017-Oct-15 12:00N 40°42' W 074°09'0 0.0
2017-Oct-15 11:30N 40°42' W 074°09'0 0.0
2017-Oct-15 11:00N 40°42' W 074°09'0 0.0
2017-Oct-15 10:30N 40°42' W 074°09'0 0.0
2017-Oct-15 10:00N 40°42' W 074°09'0 0.0
2017-Oct-15 09:30N 40°42' W 074°09'0 0.0
2017-Oct-15 09:01N 40°42' W 074°09'0 0.0
2017-Oct-15 08:30N 40°42' W 074°09'0 0.0
2017-Oct-15 08:00N 40°42' W 074°09'0 0.0
2017-Oct-15 07:30N 40°42' W 074°09'0 0.0
2017-Oct-15 07:00N 40°42' W 074°09'0 0.0
2017-Oct-15 06:30N 40°42' W 074°09'0 0.0
2017-Oct-15 06:00N 40°42' W 074°09'0 0.0
2017-Oct-15 05:30N 40°42' W 074°09'3 5.7
2017-Oct-15 05:00N 40°39' W 074°09'4 7.2
2017-Oct-15 04:30N 40°39' W 074°04'2 3.9
2017-Oct-15 04:01N 40°37' W 074°03'2 3.9
2017-Oct-15 03:31N 40°39' W 074°03'2 3.2
2017-Oct-15 03:01N 40°41' W 074°04'1 1.9
2017-Oct-15 02:30N 40°41' W 074°05'0 0.0
2017-Oct-15 02:00N 40°41' W 074°05'0 0.0
2017-Oct-15 01:30N 40°41' W 074°05'0 0.0
2017-Oct-15 01:00N 40°41' W 074°05'0 0.0
2017-Oct-15 00:30N 40°41' W 074°05'0 0.0
2017-Oct-15 00:01N 40°41' W 074°05'0 0.3
2017-Oct-14 23:30N 40°41' W 074°04'2 3.9
2017-Oct-14 23:01N 40°41' W 074°02'3 5.2
2017-Oct-14 22:30N 40°42' W 073°59'2 4.7
2017-Oct-14 22:00N 40°44' W 073°57'1 1.1
2017-Oct-14 21:30N 40°44' W 073°57'0 0.0
2017-Oct-14 21:00N 40°44' W 073°57'1 2.3
2017-Oct-14 20:30N 40°44' W 073°58'4 7.8
2017-Oct-14 20:00N 40°41' W 074°02'2 3.6
2017-Oct-14 19:30N 40°41' W 074°04'0 0.4
2017-Oct-14 19:00N 40°41' W 074°05'0 0.0
2017-Oct-14 18:30N 40°41' W 074°05'0 0.0
2017-Oct-14 18:00N 40°41' W 074°05'0 0.0
2017-Oct-14 17:30N 40°41' W 074°05'0 0.0
2017-Oct-14 17:00N 40°41' W 074°05'0 0.0
2017-Oct-14 16:30N 40°41' W 074°05'0 0.0
2017-Oct-14 16:00N 40°41' W 074°05'0 0.0
2017-Oct-14 15:30N 40°41' W 074°05'0 0.1
2017-Oct-14 15:00N 40°41' W 074°05'2 3.4
2017-Oct-14 14:30N 40°41' W 074°02'4 7.6
2017-Oct-14 14:01N 40°43' W 073°58'5 8.9
2017-Oct-14 13:30N 40°47' W 073°55'4 7.5
2017-Oct-14 12:59N 40°48' W 073°51'1 0.2
2017-Oct-14 08:50N 40°48' W 073°49'4 7.9
2017-Oct-14 08:23N 40°48' W 073°54'4 9.5
2017-Oct-14 08:00N 40°46' W 073°57'4 8.5
2017-Oct-14 07:30N 40°42' W 074°00'3 6.3
2017-Oct-14 07:01N 40°41' W 074°04'0 0.3
2017-Oct-14 06:31N 40°41' W 074°04'0 0.0
2017-Oct-14 05:59N 40°41' W 074°04'0 0.0
2017-Oct-14 05:30N 40°41' W 074°04'0 0.0
2017-Oct-14 05:00N 40°41' W 074°04'0 0.0
2017-Oct-14 04:30N 40°41' W 074°04'0 0.0
2017-Oct-14 04:00N 40°41' W 074°04'0 0.4
2017-Oct-14 03:30N 40°41' W 074°05'1 1.3
2017-Oct-14 03:00N 40°41' W 074°04'3 6.0
2017-Oct-14 02:31N 40°42' W 074°00'4 7.3
2017-Oct-14 02:01N 40°44' W 073°57'0 0.2
2017-Oct-14 01:30N 40°44' W 073°57'2 3.2
2017-Oct-14 01:01N 40°43' W 073°58'2 3.2
2017-Oct-14 00:30N 40°42' W 073°60'2 3.9
2017-Oct-14 00:00N 40°41' W 074°02'2 4.3
2017-Oct-13 23:30N 40°41' W 074°04'0 0.3
2017-Oct-13 23:00N 40°41' W 074°05'1 2.4
2017-Oct-13 22:30N 40°41' W 074°03'3 5.1
2017-Oct-13 22:01N 40°42' W 074°00'3 5.5
2017-Oct-13 21:30N 40°44' W 073°58'1 2.1
2017-Oct-13 21:00N 40°44' W 073°57'1 2.9
2017-Oct-13 20:31N 40°43' W 073°55'0 0.2
2017-Oct-13 20:00N 40°43' W 073°56'2 3.1
2017-Oct-13 19:30N 40°44' W 073°57'3 6.2
2017-Oct-13 19:00N 40°42' W 073°60'3 6.9
2017-Oct-13 18:30N 40°41' W 074°04'1 1.3
2017-Oct-13 18:00N 40°41' W 074°05'0 0.0
2017-Oct-13 17:30N 40°41' W 074°05'0 0.0
2017-Oct-13 17:00N 40°41' W 074°05'0 0.0
2017-Oct-13 16:30N 40°41' W 074°05'0 0.0
2017-Oct-13 16:00N 40°41' W 074°05'1 1.9
2017-Oct-13 15:30N 40°41' W 074°04'0 0.9
2017-Oct-13 15:00N 40°41' W 074°03'1 1.4
2017-Oct-13 14:30N 40°41' W 074°04'3 5.5
2017-Oct-13 14:00N 40°41' W 074°01'4 7.1
2017-Oct-13 13:30N 40°45' W 073°58'4 8.6
2017-Oct-13 13:01N 40°48' W 073°54'3 6.7
2017-Oct-13 12:30N 40°48' W 073°50'2 4.4
2017-Oct-13 12:00N 40°49' W 073°47'1 0.3
2017-Oct-13 08:13N 40°48' W 073°47'1 6.5
2017-Oct-13 07:59N 40°48' W 073°49'4 7.4
2017-Oct-13 07:30N 40°48' W 073°54'4 8.4
2017-Oct-13 07:00N 40°45' W 073°58'4 7.8
2017-Oct-13 06:30N 40°42' W 074°01'3 5.5
2017-Oct-13 06:00N 40°41' W 074°04'0 0.0
2017-Oct-13 05:30N 40°41' W 074°04'0 0.0
2017-Oct-13 05:00N 40°41' W 074°04'0 0.0
2017-Oct-13 04:30N 40°41' W 074°04'0 0.0
2017-Oct-13 04:00N 40°41' W 074°04'0 0.0
2017-Oct-13 03:31N 40°41' W 074°04'0 0.0
2017-Oct-13 03:00N 40°41' W 074°04'  

Dump ship's entire track history